Salida, CO

1:53 PM MDT on July 21, 2017 (GMT -0600)
Salida

Weather History for KANK - November, 2013

Change the Weather History Date:

Friday, November 8, 2013

  Actual Average (KGUC) Record (KGUC)
Temperature  
Mean Temperature 51 °F -  
Max Temperature 61 °F 43 °F 64 °F (2004)
Min Temperature 39 °F 16 °F 5 °F (2000)
Degree Days  
Heating Degree Days 14    
Growing Degree Days 1 (Base 50)    
Moisture  
Dew Point 12 °F    
Average Humidity 23    
Maximum Humidity 36    
Minimum Humidity 14    
Precipitation  
Precipitation 0.00 in - - ()
Sea Level Pressure  
Sea Level Pressure 30.17 in    
Wind  
Wind Speed 13 mph (WSW)    
Max Wind Speed 29 mph    
Max Gust Speed 43 mph    
Visibility 10 miles    
Events      
Averages and records for this station are not official NWS values.
T = Trace of Precipitation, MM = Missing Value Source: NWS Daily Summary

Daily Weather History Graph

Daily Weather History Graph

Search for Another Location

Airport or City:

Trip Planner

Search our weather history database for the weather conditions in past years. The results will help you decide how hot, cold, wet, or windy it might be!

Date:

Astronomy

Nov. 08, 2013 Rise Set
Actual Time 6:38 AM MST 4:56 PM MST
Civil Twilight 6:10 AM MST 5:24 PM MST
Nautical Twilight 5:39 AM MST 5:56 PM MST
Astronomical Twilight 5:07 AM MST 6:27 PM MST
Moon 11:36 AM MST (11/8) 10:20 PM MST (11/8)
Length of Visible Light 11h 13m
Length of Day
10h 18m
Waxing Crescent, 34% of the Moon is Illuminated
Nov 8
Waxing Crescent
Nov 9
First Quarter
Nov 17
Full
Nov 25
Last Quarter
Dec 2
New

Hourly Weather History & Observations

Time (MST) Temp. Windchill Dew Point Humidity Pressure Visibility Wind Dir Wind Speed Gust Speed Precip Events Conditions
12:15 AM 47.8 °F - 14.9 °F 27% 30.25 in 10.0 mi SW 13.8 mph 21.9 mph N/A   Clear
12:35 AM 47.5 °F - 14.2 °F 26% 30.25 in 10.0 mi SW 12.7 mph 20.7 mph N/A   Clear
12:55 AM 47.1 °F - 13.8 °F 26% 30.25 in 10.0 mi SW 10.4 mph 17.3 mph N/A   Clear
1:15 AM 45.1 °F 39.9 °F 14.7 °F 29% 30.24 in 10.0 mi WSW 10.4 mph - N/A   Clear
1:35 AM 43.3 °F 40.7 °F 14.9 °F 32% 30.24 in 10.0 mi SW 4.6 mph - N/A   Clear
1:55 AM 41.5 °F 35.9 °F 16.2 °F 36% 30.23 in 10.0 mi WSW 9.2 mph - N/A   Clear
2:15 AM 41.5 °F 38.6 °F 15.8 °F 35% 30.23 in 10.0 mi NNW 4.6 mph - N/A   Clear
2:35 AM 42.1 °F 35.7 °F 16.5 °F 36% 30.22 in 10.0 mi SW 11.5 mph - N/A   Clear
2:55 AM 42.4 °F 38.8 °F 14.9 °F 33% 30.22 in 10.0 mi SW 5.8 mph - N/A   Clear
3:15 AM 41.9 °F 36.9 °F 16.0 °F 35% 30.21 in 10.0 mi SW 8.1 mph 16.1 mph N/A   Clear
3:35 AM 43.7 °F 38.6 °F 14.7 °F 31% 30.21 in 10.0 mi WSW 9.2 mph - N/A   Clear
3:55 AM 43.0 °F 39.5 °F 13.1 °F 30% 30.20 in 10.0 mi WSW 5.8 mph - N/A   Clear
4:15 AM 43.3 °F 39.2 °F 13.6 °F 30% 30.20 in 10.0 mi WSW 6.9 mph - N/A   Clear
4:35 AM 44.8 °F 38.3 °F 11.8 °F 26% 30.20 in 10.0 mi WSW 13.8 mph 18.4 mph N/A   Clear
4:55 AM 42.6 °F 36.8 °F 13.8 °F 31% 30.19 in 10.0 mi WSW 10.4 mph 17.3 mph N/A   Clear
5:15 AM 43.5 °F 38.3 °F 12.4 °F 28% 30.19 in 10.0 mi WSW 9.2 mph - N/A   Clear
5:35 AM 43.3 °F 37.7 °F 12.0 °F 28% 30.19 in 10.0 mi SSW 10.4 mph - N/A   Clear
5:55 AM 43.3 °F 36.8 °F 11.7 °F 28% 30.20 in 10.0 mi SW 12.7 mph 19.6 mph N/A   Clear
6:15 AM 43.9 °F 39.9 °F 10.8 °F 26% 30.20 in 10.0 mi SW 6.9 mph - N/A   Clear
6:35 AM 43.3 °F 36.8 °F 11.3 °F 27% 30.20 in 10.0 mi SSW 12.7 mph 17.3 mph N/A   Clear
6:55 AM 43.2 °F 37.4 °F 11.1 °F 27% 30.20 in 10.0 mi SW 10.4 mph 16.1 mph N/A   Clear
7:15 AM 43.9 °F 38.3 °F 12.4 °F 28% 30.20 in 10.0 mi West 10.4 mph - N/A   Clear
7:35 AM 45.7 °F 39.8 °F 11.5 °F 25% 30.20 in 10.0 mi SW 12.7 mph - N/A   Clear
7:55 AM 48.2 °F - 10.9 °F 22% 30.20 in 10.0 mi SW 15.0 mph 19.6 mph N/A   Clear
8:15 AM 50.9 °F - 9.9 °F 19% 30.20 in 10.0 mi West 10.4 mph - N/A   Clear
8:35 AM 52.0 °F - 9.1 °F 18% 30.19 in 10.0 mi WSW 10.4 mph 19.6 mph N/A   Clear
8:55 AM 52.7 °F - 10.6 °F 19% 30.19 in 10.0 mi SW 15.0 mph 20.7 mph N/A   Clear
9:15 AM 54.0 °F - 9.5 °F 17% 30.18 in 10.0 mi SW 23.0 mph 35.7 mph N/A   Clear
9:35 AM 54.3 °F - 10.4 °F 17% 30.16 in 10.0 mi SW 27.6 mph 36.8 mph N/A   Clear
9:55 AM 54.5 °F - 10.9 °F 18% 30.19 in 10.0 mi SW 24.2 mph 31.1 mph N/A   Clear
10:15 AM 55.6 °F - 11.3 °F 17% 30.17 in 10.0 mi SW 24.2 mph 35.7 mph N/A   Clear
10:35 AM 56.7 °F - 8.8 °F 15% 30.16 in 10.0 mi WSW 27.6 mph 36.8 mph N/A   Clear
10:55 AM 58.1 °F - 8.8 °F 14% 30.15 in 10.0 mi WSW 25.3 mph 35.7 mph N/A   Clear
11:15 AM 58.8 °F - 8.4 °F 14% 30.14 in 10.0 mi WSW 23.0 mph 39.1 mph N/A   Clear
11:35 AM 58.6 °F - 8.2 °F 14% 30.13 in 10.0 mi WSW 25.3 mph 42.6 mph N/A   Clear
11:55 AM 58.6 °F - 8.6 °F 14% 30.12 in 10.0 mi WSW 28.8 mph 40.3 mph N/A   Clear
12:15 PM 59.4 °F - 9.1 °F 14% 30.09 in 10.0 mi SW 20.7 mph 42.6 mph N/A   Clear
12:35 PM 59.4 °F - 9.3 °F 14% 30.09 in 10.0 mi WSW 23.0 mph 34.5 mph N/A   Clear
12:55 PM 59.4 °F - 10.2 °F 14% 30.09 in 10.0 mi WSW 19.6 mph 38.0 mph N/A   Clear
1:15 PM 59.9 °F - 10.6 °F 14% 30.09 in 10.0 mi SW 25.3 mph 39.1 mph N/A   Clear
1:35 PM 59.7 °F - 10.8 °F 15% 30.09 in 10.0 mi SW 24.2 mph 33.4 mph N/A   Clear
1:55 PM 61.3 °F - 10.8 °F 14% 30.08 in 10.0 mi WSW 20.7 mph 34.5 mph N/A   Clear
2:15 PM 61.5 °F - 10.8 °F 14% 30.08 in 10.0 mi WSW 25.3 mph 34.5 mph N/A   Clear
2:35 PM 61.3 °F - 11.7 °F 14% 30.09 in 10.0 mi WSW 19.6 mph 31.1 mph N/A   Clear
2:55 PM 60.8 °F - 11.8 °F 15% 30.09 in 10.0 mi WSW 21.9 mph 32.2 mph N/A   Clear
3:15 PM 59.0 °F - 12.0 °F 16% 30.09 in 10.0 mi WSW 15.0 mph 27.6 mph N/A   Clear
3:35 PM 58.6 °F - 9.9 °F 15% 30.09 in 10.0 mi West 23.0 mph - N/A   Clear
3:55 PM 58.1 °F - 9.0 °F 14% 30.09 in 10.0 mi West 23.0 mph 31.1 mph N/A   Clear
4:15 PM 57.4 °F - 10.6 °F 16% 30.09 in 10.0 mi WSW 17.3 mph 25.3 mph N/A   Clear
4:35 PM 56.3 °F - 10.9 °F 17% 30.10 in 10.0 mi WSW 18.4 mph 29.9 mph N/A   Clear
4:55 PM 54.9 °F - 12.0 °F 18% 30.11 in 10.0 mi WSW 16.1 mph 27.6 mph N/A   Clear
5:15 PM 54.0 °F - 12.9 °F 20% 30.12 in 10.0 mi WSW 17.3 mph 24.2 mph N/A   Clear
5:35 PM 52.7 °F - 13.8 °F 21% 30.12 in 10.0 mi WSW 20.7 mph 26.5 mph N/A   Clear
5:55 PM 52.5 °F - 13.6 °F 21% 30.13 in 10.0 mi WSW 23.0 mph 32.2 mph N/A   Clear
6:15 PM 52.2 °F - 13.8 °F 22% 30.13 in 10.0 mi WSW 23.0 mph 34.5 mph N/A   Clear
6:35 PM 51.4 °F - 14.2 °F 23% 30.15 in 10.0 mi WSW 13.8 mph 25.3 mph N/A   Clear
6:55 PM 50.7 °F - 14.2 °F 23% 30.15 in 10.0 mi SW 11.5 mph 19.6 mph N/A   Clear
7:15 PM 50.0 °F - 14.0 °F 24% 30.17 in 10.0 mi WSW 6.9 mph - N/A   Clear
7:35 PM 49.1 °F - 13.6 °F 24% 30.17 in 10.0 mi NNW 3.5 mph - N/A   Clear
7:55 PM 47.1 °F - 14.0 °F 26% 30.18 in 10.0 mi SSW 11.5 mph 17.3 mph N/A   Clear
8:15 PM 49.6 °F - 14.0 °F 24% 30.19 in 10.0 mi WSW 5.8 mph - N/A   Clear
8:35 PM 48.2 °F - 14.7 °F 26% 30.19 in 10.0 mi SW 10.4 mph 16.1 mph N/A   Clear
8:55 PM 49.5 °F - 14.9 °F 25% 30.20 in 10.0 mi West 11.5 mph 19.6 mph N/A   Clear
9:15 PM 48.4 °F - 15.4 °F 27% 30.20 in 10.0 mi WSW 13.8 mph 18.4 mph N/A   Clear
9:35 PM 48.9 °F - 15.4 °F 26% 30.21 in 10.0 mi WSW 15.0 mph 18.4 mph N/A   Clear
9:55 PM 48.6 °F - 14.9 °F 26% 30.21 in 10.0 mi WSW 12.7 mph - N/A   Clear
10:15 PM 45.9 °F 41.7 °F 14.9 °F 29% 30.23 in 10.0 mi WNW 8.1 mph - N/A   Clear
10:35 PM 43.0 °F - 14.2 °F 31% 30.24 in 10.0 mi Calm Calm - N/A   Clear
10:55 PM 41.4 °F - 13.3 °F 32% 30.24 in 10.0 mi Calm Calm - N/A   Clear
11:15 PM 47.1 °F - 14.9 °F 28% 30.24 in 10.0 mi NW 11.5 mph - N/A   Clear
11:35 PM 44.2 °F - 14.2 °F 30% 30.24 in 10.0 mi Calm Calm - N/A   Clear
11:55 PM 39.2 °F - 13.5 °F 35% 30.24 in 10.0 mi Calm Calm - N/A   Clear